20040717,000007,354263,31.291000,-122.247833,NaN,18.742,33.047,44.313,  NaN,0.0, NaN, NaN, NaN, NaN,23.594,428.816,18.20,1014.50,87.40,NaN,334.0,NaN,7.7,NaN,11.0,NaN,4.0,NaN,NaN, NaN,NaN,63.0,NaN,NaN,NaN,2,9.2,000004,   NaN,61.9,     NaN,      NaN,NaN,9.6,NaN,18.746, NaN,NaN,NaN, NaN, NaN
20040717,000037,354293,31.291667,-122.246500,NaN,18.751,33.044,44.319,  NaN,0.0, NaN, NaN, NaN, NaN,23.590,429.203,18.20,1014.40,87.80,NaN,332.0,NaN,7.9,NaN,3.0,NaN,4.5,NaN,NaN, NaN,NaN,61.0,NaN,NaN,NaN,2,9.2,000034,   NaN,60.6,     NaN,      NaN,NaN,9.7,NaN,18.755, NaN,NaN,NaN, NaN, NaN
20040717,000107,354323,31.292333,-122.245167,NaN,18.766,33.045,44.335,  NaN,0.0, NaN, NaN, NaN, NaN,23.587,429.496,18.20,1014.33,87.80,NaN,330.0,NaN,7.8,NaN,355.5,NaN,4.5,NaN,NaN, NaN,NaN,62.0,NaN,NaN,NaN,2,9.2,000064,   NaN,60.9,     NaN,      NaN,NaN,9.8,NaN,18.771, NaN,NaN,NaN, NaN, NaN
20040717,000137,354353,31.293000,-122.244000,NaN,18.785,33.041,44.348,  NaN,0.0, NaN, NaN, NaN, NaN,23.579,430.228,18.20,1014.51,87.40,NaN,335.0,NaN,7.9,NaN,8.0,NaN,4.2,NaN,NaN, NaN,NaN,61.0,NaN,NaN,NaN,2,9.1,000094,   NaN,61.5,     NaN,      NaN,NaN,10.3,NaN,18.790, NaN,NaN,NaN, NaN, NaN
20040717,000207,354383,31.293500,-122.242667,NaN,18.781,33.044,44.348,  NaN,0.0, NaN, NaN, NaN, NaN,23.582,429.978,18.10,1014.31,87.60,NaN,331.0,NaN,7.6,NaN,3.5,NaN,3.5,NaN,NaN, NaN,NaN,60.0,NaN,NaN,NaN,2,9.0,000124,   NaN,59.7,     NaN,      NaN,NaN,9.6,NaN,18.786, NaN,NaN,NaN, NaN, NaN
20040717,000237,354413,31.294167,-122.241333,NaN,18.750,33.044,44.318,  NaN,0.0, NaN, NaN, NaN, NaN,23.590,429.186,18.20,1014.35,87.90,NaN,342.0,NaN,7.0,NaN,10.2,NaN,3.8,NaN,NaN, NaN,NaN,57.0,NaN,NaN,NaN,2,9.1,000154,   NaN,59.9,     NaN,      NaN,NaN,9.8,NaN,18.754, NaN,NaN,NaN, NaN, NaN
20040717,000307,354443,31.294833,-122.240167,NaN,18.725,33.044,44.294,  NaN,0.0, NaN, NaN, NaN, NaN,23.596,428.591,18.10,1014.45,87.50,NaN,340.0,NaN,6.8,NaN,6.3,NaN,3.3,NaN,NaN, NaN,NaN,60.0,NaN,NaN,NaN,2,9.1,000184,   NaN,63.1,     NaN,      NaN,NaN,9.6,NaN,18.730, NaN,NaN,NaN, NaN, NaN
20040717,000337,354473,31.295500,-122.238833,NaN,18.720,33.042,44.286,  NaN,0.0, NaN, NaN, NaN, NaN,23.595,428.662,18.10,1014.61,87.60,NaN,326.0,NaN,7.0,NaN,348.7,NaN,4.3,NaN,NaN, NaN,NaN,66.0,NaN,NaN,NaN,2,9.3,000214,   NaN,61.6,     NaN,      NaN,NaN,10.3,NaN,18.724, NaN,NaN,NaN, NaN, NaN
20040717,000407,354503,31.296000,-122.237500,NaN,18.725,33.042,44.291,  NaN,0.0, NaN, NaN, NaN, NaN,23.594,428.782,18.10,1014.42,87.60,NaN,325.0,NaN,7.5,NaN,336.0,NaN,4.3,NaN,NaN, NaN,NaN,65.0,NaN,NaN,NaN,2,9.2,000244,   NaN,59.8,     NaN,      NaN,NaN,10.2,NaN,18.730, NaN,NaN,NaN, NaN, NaN
20040717,000437,354533,31.296667,-122.236167,NaN,18.732,33.042,44.298,  NaN,0.0, NaN, NaN, NaN, NaN,23.593,428.917,18.10,1014.28,87.50,NaN,332.0,NaN,7.8,NaN,354.4,NaN,4.3,NaN,NaN, NaN,NaN,61.0,NaN,NaN,NaN,2,9.2,000274,   NaN,60.1,     NaN,      NaN,NaN,9.8,NaN,18.737, NaN,NaN,NaN, NaN, NaN
20040717,000507,354563,31.297333,-122.234833,NaN,18.707,33.043,44.276,  NaN,0.0, NaN, NaN, NaN, NaN,23.600,428.239,18.20,1014.49,87.90,NaN,332.0,NaN,8.0,NaN,6.2,NaN,4.1,NaN,NaN, NaN,NaN,61.0,NaN,NaN,NaN,2,9.2,000304,   NaN,60.0,     NaN,      NaN,NaN,10.0,NaN,18.712, NaN,NaN,NaN, NaN, NaN
20040717,000537,354593,31.298000,-122.233500,NaN,18.694,33.043,44.263,  NaN,0.0, NaN, NaN, NaN, NaN,23.603,427.921,18.20,1014.42,87.60,NaN,337.0,NaN,7.9,NaN,18.2,NaN,3.5,NaN,NaN, NaN,NaN,62.0,NaN,NaN,NaN,2,9.2,000334,   NaN,60.9,     NaN,      NaN,NaN,10.4,NaN,18.698, NaN,NaN,NaN, NaN, NaN
20040717,000607,354623,31.298500,-122.232333,NaN,18.689,33.039,44.254,  NaN,0.0, NaN, NaN, NaN, NaN,23.601,428.099,18.10,1014.49,87.10,NaN,329.0,NaN,6.8,NaN,350.6,NaN,3.5,NaN,NaN, NaN,NaN,67.0,NaN,NaN,NaN,2,9.1,000364,   NaN,62.8,     NaN,      NaN,NaN,10.3,NaN,18.694, NaN,NaN,NaN, NaN, NaN
20040717,000637,354653,31.299167,-122.231000,NaN,18.698,33.040,44.263,  NaN,0.0, NaN, NaN, NaN, NaN,23.600,428.234,18.10,1014.48,87.40,NaN,331.0,NaN,7.4,NaN,352.2,NaN,3.9,NaN,NaN, NaN,NaN,61.0,NaN,NaN,NaN,2,9.3,000394,   NaN,60.0,     NaN,      NaN,NaN,9.4,NaN,18.702, NaN,NaN,NaN, NaN, NaN
20040717,000707,354683,31.299833,-122.229667,NaN,18.708,33.039,44.272,  NaN,0.0, NaN, NaN, NaN, NaN,23.596,428.557,18.10,1014.47,87.80,NaN,331.0,NaN,7.2,NaN,356.8,NaN,3.8,NaN,NaN, NaN,NaN,63.0,NaN,NaN,NaN,2,9.2,000424,   NaN,59.9,     NaN,      NaN,NaN,9.8,NaN,18.713, NaN,NaN,NaN, NaN, NaN
20040717,000737,354713,31.300333,-122.228333,NaN,18.755,33.036,44.313,  NaN,0.0, NaN, NaN, NaN, NaN,23.582,429.877,18.10,1014.31,87.60,NaN,334.0,NaN,7.9,NaN,2.1,NaN,4.4,NaN,NaN, NaN,NaN,62.0,NaN,NaN,NaN,2,9.2,000454,   NaN,62.1,     NaN,      NaN,NaN,10.0,NaN,18.759, NaN,NaN,NaN, NaN, NaN
20040717,000807,354743,31.301000,-122.227000,NaN,18.782,33.035,44.337,  NaN,0.0, NaN, NaN, NaN, NaN,23.575,430.618,18.10,1014.37,87.60,NaN,340.0,NaN,6.6,NaN,6.5,NaN,3.5,NaN,NaN, NaN,NaN,61.0,NaN,NaN,NaN,2,9.0,000484,   NaN,60.9,     NaN,      NaN,NaN,10.1,NaN,18.786, NaN,NaN,NaN, NaN, NaN
20040717,000837,354773,31.301667,-122.225833,NaN,18.792,33.036,44.349,  NaN,0.0, NaN, NaN, NaN, NaN,23.573,430.747,18.10,1014.37,87.50,NaN,336.0,NaN,7.9,NaN,358.3,NaN,3.8,NaN,NaN, NaN,NaN,61.0,NaN,NaN,NaN,2,8.9,000514,   NaN,59.1,     NaN,      NaN,NaN,9.8,NaN,18.796, NaN,NaN,NaN, NaN, NaN
20040717,000907,354803,31.302167,-122.224500,NaN,18.799,33.037,44.356,  NaN,0.0, NaN, NaN, NaN, NaN,23.572,430.885,18.10,1014.45,87.90,NaN,328.0,NaN,7.2,NaN,354.4,NaN,3.9,NaN,NaN, NaN,NaN,61.0,NaN,NaN,NaN,2,9.1,000544,   NaN,61.8,     NaN,      NaN,NaN,9.6,NaN,18.804, NaN,NaN,NaN, NaN, NaN
20040717,000937,354833,31.302833,-122.223167,NaN,18.794,33.036,44.351,  NaN,0.0, NaN, NaN, NaN, NaN,23.573,430.807,18.10,1014.45,87.90,NaN,330.0,NaN,7.4,NaN,0.5,NaN,4.3,NaN,NaN, NaN,NaN,61.0,NaN,NaN,NaN,2,9.2,000574,   NaN,61.6,     NaN,      NaN,NaN,9.6,NaN,18.799, NaN,NaN,NaN, NaN, NaN
20040717,001007,354863,31.303500,-122.221833,NaN,18.790,33.037,44.348,  NaN,0.0, NaN, NaN, NaN, NaN,23.575,430.624,18.20,1014.50,87.60,NaN,333.0,NaN,7.8,NaN,10.5,NaN,4.5,NaN,NaN, NaN,NaN,62.0,NaN,NaN,NaN,2,9.2,000604,   NaN,61.7,     NaN,      NaN,NaN,9.9,NaN,18.794, NaN,NaN,NaN, NaN, NaN
20040717,001037,354893,31.304000,-122.220500,NaN,18.782,33.036,44.339,  NaN,0.0, NaN, NaN, NaN, NaN,23.576,430.532,18.10,1014.27,87.40,NaN,336.0,NaN,7.6,NaN,4.4,NaN,3.9,NaN,NaN, NaN,NaN,63.0,NaN,NaN,NaN,2,9.2,000634,   NaN,60.6,     NaN,      NaN,NaN,9.3,NaN,18.787, NaN,NaN,NaN, NaN, NaN
20040717,001107,354923,31.304667,-122.219333,NaN,18.802,33.033,44.355,  NaN,0.0, NaN, NaN, NaN, NaN,23.568,431.238,18.10,1014.41,87.60,NaN,334.0,NaN,7.6,NaN,9.4,NaN,3.9,NaN,NaN, NaN,NaN,62.0,NaN,NaN,NaN,2,9.1,000664,   NaN,60.7,     NaN,      NaN,NaN,10.0,NaN,18.807, NaN,NaN,NaN, NaN, NaN
20040717,001137,354953,31.305333,-122.218000,NaN,18.814,33.034,44.367,  NaN,0.0, NaN, NaN, NaN, NaN,23.566,431.453,18.10,1014.33,87.90,NaN,337.0,NaN,6.6,NaN,6.9,NaN,2.8,NaN,NaN, NaN,NaN,62.0,NaN,NaN,NaN,2,9.1,000694,   NaN,61.0,     NaN,      NaN,NaN,9.5,NaN,18.818, NaN,NaN,NaN, NaN, NaN
20040717,001207,354983,31.305833,-122.216667,NaN,18.814,33.036,44.370,  NaN,0.0, NaN, NaN, NaN, NaN,23.567,431.346,18.10,1014.40,87.80,NaN,335.0,NaN,6.8,NaN,358.5,NaN,3.4,NaN,NaN, NaN,NaN,63.0,NaN,NaN,NaN,2,9.2,000724,   NaN,61.9,     NaN,      NaN,NaN,10.1,NaN,18.819, NaN,NaN,NaN, NaN, NaN
20040717,001237,355013,31.306500,-122.215333,NaN,18.812,33.035,44.366,  NaN,0.0, NaN, NaN, NaN, NaN,23.567,431.351,18.10,1014.41,87.90,NaN,331.0,NaN,7.3,NaN,354.8,NaN,3.9,NaN,NaN, NaN,NaN,64.0,NaN,NaN,NaN,2,9.3,000754,   NaN,60.6,     NaN,      NaN,NaN,9.7,NaN,18.816, NaN,NaN,NaN, NaN, NaN
20040717,001307,355043,31.307167,-122.214000,NaN,18.821,33.034,44.374,  NaN,0.0, NaN, NaN, NaN, NaN,23.564,431.610,18.20,1014.17,87.90,NaN,325.0,NaN,7.8,NaN,353.0,NaN,4.5,NaN,NaN, NaN,NaN,63.0,NaN,NaN,NaN,2,9.2,000784,   NaN,60.5,     NaN,      NaN,NaN,9.7,NaN,18.826, NaN,NaN,NaN, NaN, NaN
20040717,001337,355073,31.307667,-122.212667,NaN,18.836,33.035,44.388,  NaN,0.0, NaN, NaN, NaN, NaN,23.561,431.946,18.20,1014.28,87.80,NaN,325.0,NaN,7.5,NaN,350.4,NaN,4.0,NaN,NaN, NaN,NaN,64.0,NaN,NaN,NaN,2,9.0,000814,   NaN,60.6,     NaN,      NaN,NaN,9.1,NaN,18.840, NaN,NaN,NaN, NaN, NaN
20040717,001407,355103,31.308333,-122.211500,NaN,18.810,33.036,44.365,  NaN,0.0, NaN, NaN, NaN, NaN,23.569,431.205,18.10,1014.28,87.60,NaN,325.0,NaN,7.9,NaN,353.5,NaN,4.8,NaN,NaN, NaN,NaN,64.0,NaN,NaN,NaN,2,9.1,000844,   NaN,60.2,     NaN,      NaN,NaN,9.8,NaN,18.814, NaN,NaN,NaN, NaN, NaN
20040717,001437,355133,31.309000,-122.210167,NaN,18.787,33.035,44.342,  NaN,0.0, NaN, NaN, NaN, NaN,23.573,430.779,18.10,1014.25,87.60,NaN,327.0,NaN,8.2,NaN,2.0,NaN,4.8,NaN,NaN, NaN,NaN,63.0,NaN,NaN,NaN,2,9.0,000874,   NaN,62.7,     NaN,      NaN,NaN,9.8,NaN,18.792, NaN,NaN,NaN, NaN, NaN
20040717,001507,355163,31.309500,-122.208833,NaN,18.826,33.034,44.379,  NaN,0.0, NaN, NaN, NaN, NaN,23.563,431.710,18.10,1014.28,87.60,NaN,330.0,NaN,7.8,NaN,357.7,NaN,5.2,NaN,NaN, NaN,NaN,61.0,NaN,NaN,NaN,2,9.2,000904,   NaN,62.4,     NaN,      NaN,NaN,9.8,NaN,18.830, NaN,NaN,NaN, NaN, NaN
20040717,001537,355193,31.310167,-122.207500,NaN,18.820,33.036,44.376,  NaN,0.0, NaN, NaN, NaN, NaN,23.566,431.443,18.20,1014.26,88.00,NaN,338.0,NaN,8.0,NaN,9.8,NaN,4.1,NaN,NaN, NaN,NaN,58.0,NaN,NaN,NaN,2,9.1,000934,   NaN,59.1,     NaN,      NaN,NaN,10.0,NaN,18.825, NaN,NaN,NaN, NaN, NaN
20040717,001607,355223,31.310833,-122.206333,NaN,18.802,33.037,44.359,  NaN,0.0, NaN, NaN, NaN, NaN,23.572,430.921,18.10,1014.23,87.50,NaN,330.0,NaN,8.4,NaN,2.7,NaN,5.2,NaN,NaN, NaN,NaN,61.0,NaN,NaN,NaN,2,9.3,000964,   NaN,61.2,     NaN,      NaN,NaN,10.0,NaN,18.806, NaN,NaN,NaN, NaN, NaN
20040717,001637,355253,31.311333,-122.205000,NaN,18.804,33.035,44.359,  NaN,0.0, NaN, NaN, NaN, NaN,23.569,431.130,18.10,1014.14,87.50,NaN,329.0,NaN,8.2,NaN,2.0,NaN,4.6,NaN,NaN, NaN,NaN,64.0,NaN,NaN,NaN,2,9.1,000994,   NaN,62.1,     NaN,      NaN,NaN,9.5,NaN,18.809, NaN,NaN,NaN, NaN, NaN
20040717,001707,355283,31.312000,-122.203667,NaN,18.809,33.036,44.365,  NaN,0.0, NaN, NaN, NaN, NaN,23.569,431.185,18.20,1014.15,87.80,NaN,333.0,NaN,6.6,NaN,3.9,NaN,3.7,NaN,NaN, NaN,NaN,61.0,NaN,NaN,NaN,2,9.2,001024,   NaN,61.5,     NaN,      NaN,NaN,9.8,NaN,18.814, NaN,NaN,NaN, NaN, NaN
20040717,001737,355313,31.312500,-122.202333,NaN,18.805,33.037,44.362,  NaN,0.0, NaN, NaN, NaN, NaN,23.570,431.024,18.10,1014.27,87.50,NaN,333.0,NaN,8.7,NaN,6.4,NaN,4.9,NaN,NaN, NaN,NaN,60.0,NaN,NaN,NaN,2,9.2,001054,   NaN,59.2,     NaN,      NaN,NaN,9.5,NaN,18.809, NaN,NaN,NaN, NaN, NaN
20040717,001807,355343,31.313167,-122.201000,NaN,18.799,33.036,44.355,  NaN,0.0, NaN, NaN, NaN, NaN,23.571,430.949,18.10,1014.29,87.40,NaN,326.0,NaN,7.4,NaN,349.5,NaN,4.6,NaN,NaN, NaN,NaN,62.0,NaN,NaN,NaN,2,9.2,001084,   NaN,60.1,     NaN,      NaN,NaN,9.7,NaN,18.803, NaN,NaN,NaN, NaN, NaN
20040717,001837,355373,31.313833,-122.199667,NaN,18.811,33.035,44.365,  NaN,0.0, NaN, NaN, NaN, NaN,23.567,431.353,18.20,1014.09,87.60,NaN,333.0,NaN,7.3,NaN,358.7,NaN,4.1,NaN,NaN, NaN,NaN,63.0,NaN,NaN,NaN,2,9.3,001114,   NaN,62.0,     NaN,      NaN,NaN,10.1,NaN,18.816, NaN,NaN,NaN, NaN, NaN
20040717,001907,355403,31.314333,-122.198333,NaN,18.802,33.036,44.358,  NaN,0.0, NaN, NaN, NaN, NaN,23.570,431.029,18.20,1014.22,88.00,NaN,338.0,NaN,7.2,NaN,0.7,NaN,4.0,NaN,NaN, NaN,NaN,60.0,NaN,NaN,NaN,2,9.3,001144,   NaN,62.9,     NaN,      NaN,NaN,10.0,NaN,18.806, NaN,NaN,NaN, NaN, NaN
20040717,001937,355433,31.315000,-122.197000,NaN,18.816,33.035,44.371,  NaN,0.0, NaN, NaN, NaN, NaN,23.566,431.427,18.20,1014.13,87.40,NaN,335.0,NaN,7.9,NaN,6.8,NaN,4.5,NaN,NaN, NaN,NaN,60.0,NaN,NaN,NaN,2,9.4,001174,   NaN,61.0,     NaN,      NaN,NaN,9.2,NaN,18.821, NaN,NaN,NaN, NaN, NaN
20040717,002007,355463,31.315667,-122.195667,NaN,18.803,33.037,44.360,  NaN,0.0, NaN, NaN, NaN, NaN,23.571,431.004,18.20,1014.24,87.40,NaN,335.0,NaN,7.7,NaN,8.6,NaN,3.9,NaN,NaN, NaN,NaN,61.0,NaN,NaN,NaN,2,9.2,001204,   NaN,60.3,     NaN,      NaN,NaN,10.1,NaN,18.808, NaN,NaN,NaN, NaN, NaN
20040717,002037,355493,31.316167,-122.194333,NaN,18.781,33.036,44.338,  NaN,0.0, NaN, NaN, NaN, NaN,23.576,430.490,18.10,1014.13,87.20,NaN,330.0,NaN,7.6,NaN,353.4,NaN,4.2,NaN,NaN, NaN,NaN,64.0,NaN,NaN,NaN,2,9.3,001234,   NaN,60.9,     NaN,      NaN,NaN,9.8,NaN,18.785, NaN,NaN,NaN, NaN, NaN
20040717,002107,355523,31.316833,-122.193000,NaN,18.762,33.037,44.321,  NaN,0.0, NaN, NaN, NaN, NaN,23.581,430.035,18.10,1014.30,87.60,NaN,327.0,NaN,7.4,NaN,355.6,NaN,3.8,NaN,NaN, NaN,NaN,65.0,NaN,NaN,NaN,2,9.4,001264,   NaN,61.7,     NaN,      NaN,NaN,9.7,NaN,18.767, NaN,NaN,NaN, NaN, NaN
20040717,002137,355553,31.317500,-122.191667,NaN,18.766,33.035,44.322,  NaN,0.0, NaN, NaN, NaN, NaN,23.579,430.239,18.10,1014.18,88.00,NaN,329.0,NaN,7.9,NaN,353.6,NaN,4.0,NaN,NaN, NaN,NaN,63.0,NaN,NaN,NaN,2,9.4,001294,   NaN,61.3,     NaN,      NaN,NaN,9.9,NaN,18.771, NaN,NaN,NaN, NaN, NaN
20040717,002207,355583,31.318167,-122.190333,NaN,18.787,33.034,44.342,  NaN,0.0, NaN, NaN, NaN, NaN,23.573,430.799,18.20,1014.25,87.80,NaN,334.0,NaN,7.6,NaN,352.2,NaN,4.1,NaN,NaN, NaN,NaN,62.0,NaN,NaN,NaN,2,9.4,001324,   NaN,60.1,     NaN,      NaN,NaN,9.7,NaN,18.792, NaN,NaN,NaN, NaN, NaN
20040717,002237,355613,31.318667,-122.189000,NaN,18.789,33.036,44.345,  NaN,0.0, NaN, NaN, NaN, NaN,23.573,430.752,18.20,1014.24,87.60,NaN,334.0,NaN,7.5,NaN,5.7,NaN,3.7,NaN,NaN, NaN,NaN,61.0,NaN,NaN,NaN,2,9.3,001354,   NaN,59.4,     NaN,      NaN,NaN,10.1,NaN,18.794, NaN,NaN,NaN, NaN, NaN
20040717,002307,355643,31.319333,-122.187667,NaN,18.767,33.037,44.325,  NaN,0.0, NaN, NaN, NaN, NaN,23.580,430.112,18.10,1014.21,87.80,NaN,332.0,NaN,7.6,NaN,5.0,NaN,4.2,NaN,NaN, NaN,NaN,60.0,NaN,NaN,NaN,2,9.3,001384,   NaN,58.6,     NaN,      NaN,NaN,10.0,NaN,18.771, NaN,NaN,NaN, NaN, NaN
20040717,002337,355673,31.320000,-122.186500,NaN,18.753,33.036,44.311,  NaN,0.0, NaN, NaN, NaN, NaN,23.583,429.840,18.10,1013.85,87.90,NaN,327.0,NaN,7.8,NaN,352.5,NaN,4.4,NaN,NaN, NaN,NaN,62.0,NaN,NaN,NaN,2,9.3,001414,   NaN,59.6,     NaN,      NaN,NaN,10.1,NaN,18.757, NaN,NaN,NaN, NaN, NaN
20040717,002407,355703,31.320667,-122.185167,NaN,18.760,33.035,44.315,  NaN,0.0, NaN, NaN, NaN, NaN,23.580,430.124,18.10,1014.04,88.00,NaN,329.0,NaN,8.5,NaN,359.9,NaN,5.0,NaN,NaN, NaN,NaN,59.0,NaN,NaN,NaN,2,9.3,001444,   NaN,58.4,     NaN,      NaN,NaN,10.3,NaN,18.764, NaN,NaN,NaN, NaN, NaN
20040717,002437,355733,31.321333,-122.183833,NaN,18.771,33.035,44.327,  NaN,0.0, NaN, NaN, NaN, NaN,23.578,430.360,18.10,1014.21,87.60,NaN,323.0,NaN,7.6,NaN,343.1,NaN,4.2,NaN,NaN, NaN,NaN,61.0,NaN,NaN,NaN,2,9.3,001474,   NaN,58.3,     NaN,      NaN,NaN,9.2,NaN,18.775, NaN,NaN,NaN, NaN, NaN
20040717,002507,355763,31.322000,-122.182500,NaN,18.802,33.033,44.355,  NaN,0.0, NaN, NaN, NaN, NaN,23.568,431.219,18.10,1014.19,88.00,NaN,328.0,NaN,7.4,NaN,352.8,NaN,4.3,NaN,NaN, NaN,NaN,59.0,NaN,NaN,NaN,2,9.4,001504,   NaN,59.0,     NaN,      NaN,NaN,9.8,NaN,18.807, NaN,NaN,NaN, NaN, NaN
20040717,002537,355793,31.322667,-122.181167,NaN,18.825,33.035,44.379,  NaN,0.0, NaN, NaN, NaN, NaN,23.564,431.667,18.10,1014.04,88.10,NaN,330.0,NaN,7.3,NaN,352.8,NaN,4.2,NaN,NaN, NaN,NaN,61.0,NaN,NaN,NaN,2,9.4,001534,   NaN,60.3,     NaN,      NaN,NaN,9.6,NaN,18.830, NaN,NaN,NaN, NaN, NaN
20040717,002607,355823,31.323333,-122.179833,NaN,18.819,33.035,44.373,  NaN,0.0, NaN, NaN, NaN, NaN,23.565,431.509,18.20,1014.13,88.00,NaN,319.0,NaN,7.2,NaN,341.6,NaN,4.4,NaN,NaN, NaN,NaN,63.0,NaN,NaN,NaN,2,9.5,001564,   NaN,59.8,     NaN,      NaN,NaN,10.2,NaN,18.824, NaN,NaN,NaN, NaN, NaN
20040717,002637,355853,31.324000,-122.178667,NaN,18.808,33.035,44.363,  NaN,0.0, NaN, NaN, NaN, NaN,23.568,431.272,18.10,1014.05,88.30,NaN,332.0,NaN,7.4,NaN,345.5,NaN,3.4,NaN,NaN, NaN,NaN,60.0,NaN,NaN,NaN,2,9.4,001594,   NaN,58.5,     NaN,      NaN,NaN,9.7,NaN,18.813, NaN,NaN,NaN, NaN, NaN
20040717,002707,355883,31.324667,-122.177333,NaN,18.805,33.035,44.359,  NaN,0.0, NaN, NaN, NaN, NaN,23.569,431.193,18.10,1014.17,87.60,NaN,329.0,NaN,7.5,NaN,353.5,NaN,4.2,NaN,NaN, NaN,NaN,61.0,NaN,NaN,NaN,2,9.4,001624,   NaN,58.0,     NaN,      NaN,NaN,9.8,NaN,18.809, NaN,NaN,NaN, NaN, NaN
20040717,002737,355913,31.325333,-122.176000,NaN,18.800,33.033,44.352,  NaN,0.0, NaN, NaN, NaN, NaN,23.569,431.181,18.10,1014.41,87.90,NaN,333.0,NaN,6.6,NaN,352.5,NaN,3.0,NaN,NaN, NaN,NaN,62.0,NaN,NaN,NaN,2,9.4,001654,   NaN,59.7,     NaN,      NaN,NaN,9.8,NaN,18.804, NaN,NaN,NaN, NaN, NaN
20040717,002807,355943,31.326000,-122.174667,NaN,18.802,33.033,44.355,  NaN,0.0, NaN, NaN, NaN, NaN,23.569,431.220,18.10,1014.17,88.30,NaN,330.0,NaN,7.2,NaN,355.3,NaN,3.8,NaN,NaN, NaN,NaN,61.0,NaN,NaN,NaN,2,9.4,001684,   NaN,59.8,     NaN,      NaN,NaN,9.2,NaN,18.806, NaN,NaN,NaN, NaN, NaN
20040717,002837,355973,31.326667,-122.173333,NaN,18.800,33.035,44.355,  NaN,0.0, NaN, NaN, NaN, NaN,23.570,431.095,18.10,1014.05,88.00,NaN,334.0,NaN,7.2,NaN,347.3,NaN,3.7,NaN,NaN, NaN,NaN,60.0,NaN,NaN,NaN,2,9.3,001714,   NaN,59.9,     NaN,      NaN,NaN,9.7,NaN,18.805, NaN,NaN,NaN, NaN, NaN
20040717,002907,356003,31.327333,-122.172000,NaN,18.792,33.034,44.347,  NaN,0.0, NaN, NaN, NaN, NaN,23.572,430.917,18.10,1014.27,88.40,NaN,327.0,NaN,7.0,NaN,346.2,NaN,3.5,NaN,NaN, NaN,NaN,61.0,NaN,NaN,NaN,2,9.1,001744,   NaN,58.3,     NaN,      NaN,NaN,9.6,NaN,18.797, NaN,NaN,NaN, NaN, NaN
20040717,002937,356033,31.328000,-122.170833,NaN,18.793,33.034,44.347,  NaN,0.0, NaN, NaN, NaN, NaN,23.571,430.981,18.00,1014.18,88.00,NaN,326.0,NaN,7.0,NaN,343.0,NaN,4.0,NaN,NaN, NaN,NaN,60.0,NaN,NaN,NaN,2,9.3,001774,   NaN,58.8,     NaN,      NaN,NaN,10.2,NaN,18.798, NaN,NaN,NaN, NaN, NaN
20040717,003007,356063,31.328667,-122.169500,NaN,18.798,33.032,44.350,  NaN,0.0, NaN, NaN, NaN, NaN,23.569,431.206,18.10,1014.25,88.50,NaN,328.0,NaN,6.4,NaN,343.8,NaN,4.1,NaN,NaN, NaN,NaN,60.0,NaN,NaN,NaN,2,9.6,001804,   NaN,59.1,     NaN,      NaN,NaN,9.9,NaN,18.802, NaN,NaN,NaN, NaN, NaN
20040717,003037,356093,31.329333,-122.168167,NaN,18.806,33.034,44.358,  NaN,0.0, NaN, NaN, NaN, NaN,23.568,431.297,18.20,1014.17,88.30,NaN,328.0,NaN,7.5,NaN,348.6,NaN,4.1,NaN,NaN, NaN,NaN,61.0,NaN,NaN,NaN,2,9.5,001834,   NaN,59.4,     NaN,      NaN,NaN,9.9,NaN,18.810, NaN,NaN,NaN, NaN, NaN
20040717,003107,356123,31.330000,-122.166833,NaN,18.803,33.033,44.356,  NaN,0.0, NaN, NaN, NaN, NaN,23.568,431.259,18.10,1014.08,88.40,NaN,331.0,NaN,7.2,NaN,354.5,NaN,3.6,NaN,NaN, NaN,NaN,60.0,NaN,NaN,NaN,2,9.4,001864,   NaN,59.8,     NaN,      NaN,NaN,9.8,NaN,18.808, NaN,NaN,NaN, NaN, NaN
20040717,003137,356153,31.330667,-122.165500,NaN,18.796,33.034,44.349,  NaN,0.0, NaN, NaN, NaN, NaN,23.570,431.038,18.10,1014.06,88.00,NaN,328.0,NaN,6.9,NaN,348.3,NaN,4.3,NaN,NaN, NaN,NaN,58.0,NaN,NaN,NaN,2,9.3,001894,   NaN,58.4,     NaN,      NaN,NaN,10.2,NaN,18.800, NaN,NaN,NaN, NaN, NaN
20040717,003207,356183,31.331333,-122.164167,NaN,18.790,33.034,44.343,  NaN,0.0, NaN, NaN, NaN, NaN,23.572,430.901,18.00,1014.26,88.00,NaN,332.0,NaN,6.6,NaN,350.9,NaN,3.6,NaN,NaN, NaN,NaN,59.0,NaN,NaN,NaN,2,9.3,001924,   NaN,59.9,     NaN,      NaN,NaN,10.2,NaN,18.794, NaN,NaN,NaN, NaN, NaN
20040717,003237,356213,31.331833,-122.162833,NaN,18.773,33.034,44.328,  NaN,0.0, NaN, NaN, NaN, NaN,23.576,430.505,18.10,1014.24,88.40,NaN,327.0,NaN,6.8,NaN,342.8,NaN,3.5,NaN,NaN, NaN,NaN,61.0,NaN,NaN,NaN,2,9.4,001954,   NaN,59.1,     NaN,      NaN,NaN,9.8,NaN,18.778, NaN,NaN,NaN, NaN, NaN
20040717,003307,356243,31.332500,-122.161500,NaN,18.766,33.033,44.320,  NaN,0.0, NaN, NaN, NaN, NaN,23.577,430.410,18.10,1014.03,88.30,NaN,329.0,NaN,7.9,NaN,347.1,NaN,4.5,NaN,NaN, NaN,NaN,62.0,NaN,NaN,NaN,2,9.5,001984,   NaN,60.3,     NaN,      NaN,NaN,9.9,NaN,18.771, NaN,NaN,NaN, NaN, NaN
20040717,003337,356273,31.333167,-122.160167,NaN,18.760,33.033,44.314,  NaN,0.0, NaN, NaN, NaN, NaN,23.579,430.232,18.10,1014.09,88.30,NaN,329.0,NaN,7.7,NaN,350.4,NaN,4.2,NaN,NaN, NaN,NaN,62.0,NaN,NaN,NaN,2,9.3,002014,   NaN,59.1,     NaN,      NaN,NaN,9.4,NaN,18.764, NaN,NaN,NaN, NaN, NaN
20040717,003407,356303,31.333833,-122.158833,NaN,18.766,33.033,44.320,  NaN,0.0, NaN, NaN, NaN, NaN,23.577,430.389,18.10,1014.14,88.40,NaN,335.0,NaN,6.9,NaN,4.3,NaN,3.3,NaN,NaN, NaN,NaN,59.0,NaN,NaN,NaN,2,9.3,002044,   NaN,58.8,     NaN,      NaN,NaN,10.3,NaN,18.770, NaN,NaN,NaN, NaN, NaN
20040717,003437,356333,31.334500,-122.157667,NaN,18.774,33.032,44.326,  NaN,0.0, NaN, NaN, NaN, NaN,23.574,430.673,18.00,1014.17,88.00,NaN,331.0,NaN,6.7,NaN,350.7,NaN,2.7,NaN,NaN, NaN,NaN,62.0,NaN,NaN,NaN,2,9.2,002074,   NaN,60.0,     NaN,      NaN,NaN,9.5,NaN,18.778, NaN,NaN,NaN, NaN, NaN
20040717,003507,356363,31.335167,-122.156333,NaN,18.769,33.034,44.323,  NaN,0.0, NaN, NaN, NaN, NaN,23.577,430.426,18.00,1014.16,88.30,NaN,335.0,NaN,7.3,NaN,356.8,NaN,3.9,NaN,NaN, NaN,NaN,61.0,NaN,NaN,NaN,2,9.4,002104,   NaN,59.5,     NaN,      NaN,NaN,9.6,NaN,18.774, NaN,NaN,NaN, NaN, NaN
20040717,003537,356393,31.335833,-122.155000,NaN,18.748,33.033,44.302,  NaN,0.0, NaN, NaN, NaN, NaN,23.581,429.997,18.00,1014.02,88.10,NaN,336.0,NaN,7.4,NaN,0.7,NaN,3.6,NaN,NaN, NaN,NaN,60.0,NaN,NaN,NaN,2,9.3,002134,   NaN,59.8,     NaN,      NaN,NaN,10.0,NaN,18.753, NaN,NaN,NaN, NaN, NaN
20040717,003607,356423,31.336333,-122.153667,NaN,18.738,33.034,44.293,  NaN,0.0, NaN, NaN, NaN, NaN,23.585,429.675,18.10,1014.02,88.50,NaN,330.0,NaN,6.7,NaN,341.1,NaN,3.5,NaN,NaN, NaN,NaN,62.0,NaN,NaN,NaN,2,9.4,002164,   NaN,57.9,     NaN,      NaN,NaN,9.7,NaN,18.742, NaN,NaN,NaN, NaN, NaN
20040717,003637,356453,31.337000,-122.152333,NaN,18.734,33.032,44.288,  NaN,0.0, NaN, NaN, NaN, NaN,23.584,429.701,18.10,1014.03,88.50,NaN,324.0,NaN,7.6,NaN,340.3,NaN,5.0,NaN,NaN, NaN,NaN,61.0,NaN,NaN,NaN,2,9.4,002194,   NaN,60.3,     NaN,      NaN,NaN,9.6,NaN,18.739, NaN,NaN,NaN, NaN, NaN
20040717,003707,356483,31.337667,-122.151000,NaN,18.739,33.034,44.295,  NaN,0.0, NaN, NaN, NaN, NaN,23.585,429.672,18.10,1014.01,88.50,NaN,329.0,NaN,7.7,NaN,344.0,NaN,4.9,NaN,NaN, NaN,NaN,61.0,NaN,NaN,NaN,2,9.4,002224,   NaN,60.2,     NaN,      NaN,NaN,9.5,NaN,18.744, NaN,NaN,NaN, NaN, NaN
20040717,003737,356513,31.338333,-122.149667,NaN,18.722,33.034,44.278,  NaN,0.0, NaN, NaN, NaN, NaN,23.589,429.278,18.10,1014.28,88.10,NaN,338.0,NaN,6.9,NaN,5.3,NaN,3.0,NaN,NaN, NaN,NaN,60.0,NaN,NaN,NaN,2,9.3,002254,   NaN,58.1,     NaN,      NaN,NaN,9.6,NaN,18.726, NaN,NaN,NaN, NaN, NaN
20040717,003807,356543,31.339000,-122.148333,NaN,18.702,33.034,44.260,  NaN,0.0, NaN, NaN, NaN, NaN,23.594,428.780,18.10,1014.13,88.40,NaN,332.0,NaN,7.8,NaN,0.6,NaN,4.1,NaN,NaN, NaN,NaN,60.0,NaN,NaN,NaN,2,9.1,002284,   NaN,58.4,     NaN,      NaN,NaN,10.6,NaN,18.707, NaN,NaN,NaN, NaN, NaN
20040717,003837,356573,31.339667,-122.147000,NaN,18.688,33.032,44.245,  NaN,0.0, NaN, NaN, NaN, NaN,23.596,428.571,18.10,1014.11,88.30,NaN,333.0,NaN,7.9,NaN,356.6,NaN,4.6,NaN,NaN, NaN,NaN,62.0,NaN,NaN,NaN,2,9.2,002314,   NaN,59.6,     NaN,      NaN,NaN,9.7,NaN,18.693, NaN,NaN,NaN, NaN, NaN
20040717,003907,356603,31.340167,-122.145667,NaN,18.693,33.032,44.248,  NaN,0.0, NaN, NaN, NaN, NaN,23.594,428.733,18.00,1013.99,88.30,NaN,337.0,NaN,7.3,NaN,356.3,NaN,3.9,NaN,NaN, NaN,NaN,60.0,NaN,NaN,NaN,2,9.2,002344,   NaN,59.9,     NaN,      NaN,NaN,9.8,NaN,18.698, NaN,NaN,NaN, NaN, NaN
20040717,003937,356633,31.340833,-122.144333,NaN,18.663,33.031,44.218,  NaN,0.0, NaN, NaN, NaN, NaN,23.601,428.107,18.00,1014.08,88.30,NaN,331.0,NaN,7.4,NaN,348.9,NaN,4.2,NaN,NaN, NaN,NaN,61.0,NaN,NaN,NaN,2,9.4,002374,   NaN,58.8,     NaN,      NaN,NaN,10.2,NaN,18.667, NaN,NaN,NaN, NaN, NaN
20040717,004007,356663,31.341500,-122.143000,NaN,18.608,33.036,44.172,  NaN,0.0, NaN, NaN, NaN, NaN,23.618,426.459,18.00,1014.03,88.30,NaN,336.0,NaN,7.4,NaN,355.1,NaN,3.7,NaN,NaN, NaN,NaN,59.0,NaN,NaN,NaN,2,9.4,002404,   NaN,58.8,     NaN,      NaN,NaN,9.9,NaN,18.613, NaN,NaN,NaN, NaN, NaN
20040717,004037,356693,31.342167,-122.141833,NaN,18.580,33.028,44.135,  NaN,0.0, NaN, NaN, NaN, NaN,23.620,426.342,18.00,1014.04,88.60,NaN,333.0,NaN,6.3,NaN,352.5,NaN,3.2,NaN,NaN, NaN,NaN,62.0,NaN,NaN,NaN,2,9.4,002434,   NaN,58.9,     NaN,      NaN,NaN,10.1,NaN,18.584, NaN,NaN,NaN, NaN, NaN